Location: Amon Carter Post Office
(32.8281°N, 97.0484°W)
Time: 12:17:46
(UTC+00:00)

CUTE 1.7 + AOD 2 - Visible Passes

Search period start: 26 September 2022 00:00
Search period end: 06 October 2022 00:00
Orbit: 590 x 606 km, 97.7° (Epoch: 25 September)

Date Brightness Start Highest point End Pass type
(mag) Time Alt. Az. Time Alt. Az. Time Alt. Az.
26 Sep ? 09:47:19 10° NNE 09:49:37 28° NE 09:49:37 28° NE visible
26 Sep ? 11:24:49 10° NW 11:26:20 12° WNW 11:26:20 12° WNW visible
27 Sep ? 09:57:43 10° NNE 10:00:09 32° NNE 10:00:09 32° NNE visible
28 Sep ? 10:08:12 10° NNE 10:10:41 34° NNE 10:10:41 34° NNE visible
29 Sep ? 10:18:44 10° N 10:21:12 34° N 10:21:12 34° N visible
30 Sep ? 10:29:20 10° N 10:31:43 31° NNW 10:31:43 31° NNW visible
01 Oct ? 10:40:00 10° N 10:42:12 26° NNW 10:42:12 26° NNW visible
02 Oct ? 09:15:52 10° NE 09:16:00 10° NE 09:16:00 10° NE visible
02 Oct ? 10:50:44 10° NNW 10:52:42 22° NW 10:52:42 22° NW visible
03 Oct ? 09:25:54 10° NE 09:26:29 13° NE 09:26:29 13° NE visible
03 Oct ? 11:01:34 10° NNW 11:03:12 18° NW 11:03:12 18° NW visible
04 Oct ? 09:36:04 10° NE 09:36:58 15° NE 09:36:58 15° NE visible
04 Oct ? 11:12:33 10° NNW 11:13:40 14° NW 11:13:40 14° NW visible
05 Oct ? 09:46:21 10° NNE 09:47:27 17° NNE 09:47:27 17° NNE visible
05 Oct ? 11:23:50 10° NW 11:24:09 11° NW 11:24:09 11° NW visible
